Location: Aubervilles
(48.9167°N, 2.3833°E)
Time: 10:40:29
(UTC+00:00)

Lacrosse 5 - Pass Details

Date: 03 February 2023
Orbit: 714 x 724 km, 57.0° (Epoch: 09 March)

Event Time Altitude Azimuth Distance (km) Brightness Sun altitude
Rises 20:09:08 0° 266° (W) 3,136 6.2 -32.7°
Reaches altitude 10° 20:11:39 10° 274° (W) 2,217 5.2 -33.1°
Enters shadow 20:15:03 33° 307° (NW) 1,211 3.4 -33.6°
